This is the latest recevied weather packets stored in our database for station/object E25WRM. If no packets are shown the sender has not sent any weather packets the latest 10 day(s).
| Time | Temp. | Humidity | Pressure | Rain* | Wind** | Luminosity | Snow |
|---|---|---|---|---|---|---|---|
| 1777027366 | 37.22° C | 37% | 998 hPa | - | - | 0 W/m² | - |
| 1777026457 | 36.11° C | 34% | 997 hPa | - | - | 0 W/m² | - |
| 1777025546 | 36.11° C | 35% | 998 hPa | - | - | 0 W/m² | - |
| 1777024637 | 36.11° C | 35% | 997 hPa | - | - | 0 W/m² | - |
| 1777023726 | 36.11° C | 35% | 997 hPa | - | - | 0 W/m² | - |
| 1777022817 | 36.11° C | 36% | 998 hPa | - | - | 0 W/m² | - |
| 1777021906 | 36.11° C | 38% | 998 hPa | - | - | 0 W/m² | - |
| 1777020996 | 36.67° C | 38% | 998 hPa | - | - | 0 W/m² | - |
| 1777020087 | 36.67° C | 41% | 998 hPa | - | - | 0 W/m² | - |
| 1777019177 | 37.22° C | 45% | 998 hPa | - | - | 0 W/m² | - |
| 1777018267 | 37.22° C | 53% | 998 hPa | - | - | 0 W/m² | - |
| 1777017357 | 37.22° C | 52% | 998 hPa | - | - | 0 W/m² | - |
| 1777016447 | 37.78° C | 42% | 998 hPa | - | - | 0 W/m² | - |
| 1777015537 | 38.33° C | 43% | 999 hPa | - | - | 0 W/m² | - |
| 1777014627 | 38.33° C | 43% | 999 hPa | - | - | 0 W/m² | - |
| 1777013717 | 38.89° C | 44% | 999 hPa | - | - | 0 W/m² | - |
| 1777012807 | 38.33° C | 44% | 1000 hPa | - | - | 0 W/m² | - |
| 1777011897 | 38.89° C | 45% | 1000 hPa | - | - | 0 W/m² | - |
| 1777010987 | 38.89° C | 45% | 1000 hPa | - | - | 0 W/m² | - |
| 1777010077 | 38.33° C | 45% | 1001 hPa | - | - | 0 W/m² | - |
| 1777009166 | 38.33° C | 46% | 1001 hPa | - | - | 0 W/m² | - |
| 1777008257 | 38.33° C | 46% | 1001 hPa | - | - | 0 W/m² | - |
| 1777007347 | 38.33° C | 47% | 1002 hPa | - | - | 0 W/m² | - |
| 1777006437 | 38.33° C | 48% | 1002 hPa | - | - | 0 W/m² | - |
| 1777005527 | 39.44° C | 46% | 1002 hPa | - | - | 0 W/m² | - |
* Rain since midnight (hover to see other rain measurements)
** Current wind speed in m/s (hover to see current wind gust speed)